Baseball 板


LINE

Lamigo桃猿 余德龙 詹智尧 蔡建伟 义大犀牛 裁判 1 詹智尧 高国辉 林旺卫 张建铭 / 1 林旺卫 主 尤志钦 2 林智平 \     林智胜 郭严文    /  2 张建铭 一 林金达 3 林智胜 林玮恩 陈凯伦 /   3 高国辉 二 张展荣 4 林泓育  林智平 陈俊秀   4 林益全 三 王俊宏 5 郭严文 阳冠威 林益全    5 阳冠威陈俊秀   \ 兰斯佛 /      6 吴宗峻蔡建伟 DH \ 何南德 /  DH    7 陈凯伦 刘时豪 林泓育 \   / 吴宗峻   8 林琨笙余德龙          \ /         9 林玮恩 刘时豪 主播台 纬来体育台 ELTA育乐台 林琨笙 纬来 杨正磊 陈瑞昌 两台直播 ELTA 吴昇府 郑景益 场 战绩 局数 ERA K ER 场 战绩 局数 ERA K ER 兰斯佛 全季 16 9W3L 109.1 3.46 60 42 何南德 全季 7 3W1L 43.1 3.12 32 15 vs犀 6 4W1L 39.1 3.66 15 16 vs猿 4 1W1L 20.0 5.40 13 12 --



※ 发信站: 批踢踢实业坊(ptt.cc), 来自: 36.229.217.73
※ 文章网址: https://webptt.com/cn.aspx?n=bbs/Baseball/M.1436603157.A.F72.html
1F:推 yushenlin: 赢定了 07/11 16:26
2F:推 xxx3: 没空啦 07/11 16:26
3F:→ yushenlin: 话说Hu是要休到何时 07/11 16:26
4F:推 d90493: 老皮又会上来放火吗 07/11 16:26
5F:→ nakayamayyt: 叶总不错 让黑峻一直上场 07/11 16:27
6F:推 sony1256: 除非超大比分 不然老皮一直操~惨 07/11 16:27
7F:推 EdisonDeng: Hu预计休一周 下周应该就会回来 07/11 16:28
8F:推 t20000911: 小皇帝不是上一军了?怎麽是凯伦先发 07/11 16:28
9F:推 a136136c: 还是不让高休息…… 07/11 16:29
10F:推 liunwaiqoo: 林羿豪会再上场吗?超越曾兆豪、陈禹勳的男人要出现了? 07/11 16:29
11F:推 oldEn15: 有咖啡推 07/11 16:30
12F:推 l3086: 推啦,不过没胡梗王的日子挺无聊的,老胡快快休养好身体! 07/11 16:31
13F:嘘 CruxLaelaps: 为啥不换高去DH 07/11 16:32
14F:推 rrnew: 希望别再老皮了 07/11 16:33
15F:推 twnc1006: 老皮早就超过陈瑀薰了 07/11 16:33
16F:嘘 dragon49er: SS又林玮恩 07/11 16:33
17F:推 tw88: 海豚咖啡赞 07/11 16:34
18F:推 lawabe: 未看先猜老皮会上 07/11 16:39
19F:推 btonyo: 希望钓虾CF WWLF 国辉DH 07/11 16:41
20F:→ OLM: 然後胡板凳? 07/11 16:45
21F:推 Rex3661: 我辉今天必炸 07/11 16:57
22F:推 elve7878: 老皮比FB勳还操吧... 07/11 16:58
23F:推 oddhand: 兰斯佛没完投的话 米糕稳输 07/11 16:58
24F:→ icecold52: 今天跳毛巾操?! XD 07/11 16:59
25F:推 m85037: 郭静 07/11 16:59
26F:推 mimiiy: 丢好远XD 07/11 17:00
27F:推 Lackland: 阿姨你好 07/11 17:00
28F:→ icecold52: 超级大暴投 连大义都吓到了 XDD 07/11 17:00
29F:推 tw88: CPBLTV怒切qqqqq 07/11 17:00
30F:→ m85037: 大爆投 07/11 17:00
31F:推 iceyang: 郭静不是黄药师的女婿吗 07/11 17:00
32F:推 giancarloye: 恋爱了 07/11 17:00
※ 编辑: hicker (36.229.217.73), 07/11/2015 17:02:51
33F:→ icecold52: ELTA 是吴昇府 郑景益 07/11 17:03
34F:推 mp3w69: 没有火车便当!! 07/11 17:03
35F:→ cocount: 仁科... 07/11 17:03
36F:推 linhsiuwei: 郭静 07/11 17:03
37F:推 lin0322: 交给我处理 07/11 17:03
38F:→ icecold52: 大义跟唐基都跟郭静抱抱 XDDD 07/11 17:03
39F:推 s900144: 哈哈哈两只太宝啦 07/11 17:03
40F:→ s900144: 帅啊老何! 07/11 17:05
41F:推 thirdblue: 跳好高XDDD 07/11 17:05
42F:推 goodevening: 神全不意外.... 07/11 17:05
43F:→ icecold52: 林益全的守备真的很欢乐 XD 07/11 17:05
44F:推 lin0322: 差点害投手被撞 07/11 17:05
※ 编辑: hicker (36.229.217.73), 07/11/2015 17:07:21
45F:推 iceyang: 神全跟31一样阿 带棒子守备的男人 要习惯 07/11 17:06
46F:→ cpcpao: 何投球节奏超快 赶着逛夜市 07/11 17:07
47F:→ icecold52: 外野收音还是这麽清楚啊 XD 07/11 17:07
48F:推 kress: 今天是林捕!! 07/11 17:07
49F:推 goodevening: 本土投手都没这种投球节奏的 07/11 17:08
50F:→ kress: 这球有点.... 07/11 17:08
51F:推 cissant: 海你妹 07/11 17:08
52F:→ tw88: BB+BB 07/11 17:09
53F:推 dxcer: 难得何一次2保送 07/11 17:09
54F:→ goodevening: 一局就2bb 要爆的感觉 07/11 17:09
55F:推 lichun1228: 鬼脚.. 07/11 17:09
56F:→ yyc1217: 裤子被希克穿走了 07/11 17:09
57F:→ goodevening: 一堆坏球 07/11 17:09
58F:推 CarrieWhite: 一整排小喇叭好壮观呀... 07/11 17:10
59F:→ icecold52: 那个小号手群是怎样啦 XDDDDDD 07/11 17:10
60F:→ goodevening: 不是官方的话 这小喇叭动员还真威 07/11 17:11
61F:推 kress: 今天主审是...这种外角的这麽爱捡... 07/11 17:11
62F:推 applejone: 狂跑 07/11 17:11
63F:→ icecold52: 主审是尤志钦 07/11 17:11
64F:推 iceyang: 盗三垒 完全不给捕手面子 07/11 17:12
65F:推 blackhearted: 杨冠威是不是太晚进了 07/11 17:12
66F:→ tw88: 鞑靼的脚尘 07/11 17:12
67F:推 larailing: 刚刚如果抓2垒 抓得到吗 07/11 17:12
68F:→ goodevening: 林补被盗好玩的 07/11 17:12
69F:推 alsk1566: 这球真的跑的厉害~ 07/11 17:12
70F:→ goodevening: 当然抓三垒 3b近很多 07/11 17:12
71F:推 hu610346: 鬼脚跑太快了 完全没机会 07/11 17:13
72F:推 dxcer: ...............超海 07/11 17:13
73F:→ blackhearted: 如果直接丢一垒呢 07/11 17:13
74F:推 chenpy929: 海............. 07/11 17:13
75F:推 kress: 这好球带会不会太不固定了一点.. 07/11 17:13
76F:→ icecold52: 这球好球?! 07/11 17:13
77F:推 applejone: 喔喔 有申诉 07/11 17:13
78F:推 NTJL: 记录断了之後不知道会不会陷入低潮?! 07/11 17:14
79F:→ Finn5566: 有没有尤志清都专站LM主审的八卦啊? 07/11 17:14
80F:嘘 godtim: 主审这外角球也捡 07/11 17:14
81F:推 goodevening: 打得好 07/11 17:15
82F:推 thirdblue: 守住了XDDD 07/11 17:15
83F:→ icecold52: 尤志钦之前就表了yoyo好几球 不意外 07/11 17:15
84F:推 kress: 说实话 刚刚那球外角变化捡就真的有点过份... 07/11 17:15
85F:推 twnc1006: 主审可不可以都送去培训一下ZZ 07/11 17:15
86F:推 hu610346: 义大今天又要烧牛棚 烧烂好了 07/11 17:15
87F:推 Y1999: 又是尤...... 07/11 17:16
88F:嘘 amani168: 又是尤志钦.......................................... 07/11 17:16
89F:→ twnc1006: 对齁 为什他都刚好站主审= = 07/11 17:16
90F:嘘 s638450: 尤志钦真是看了都会怕 07/11 17:16
91F:推 NTJL: 尤当主审 两队都要有心理准备T.T 07/11 17:17
92F:→ Ogrish: 现场看会觉得外角浮动 07/11 17:18
93F:推 yusiang: 兰斯佛好能吃局数啊,防御率也算不错 07/11 17:18
94F:→ lml99: 尤当主审 两队保重 07/11 17:18
95F:嘘 amani168: 尤志钦可以离开裁判组吗???????????? 好球袋超畸形 07/11 17:18
96F:推 goodevening: 没有上方的摄影机,也不知到底经过本垒板时外不外角 07/11 17:19
97F:推 LOVEERIKA: 这好球带好屌 07/11 17:19
98F:推 Finn5566: 上方的摄影机只有台南有 但某次被截图後就没什麽看过了 07/11 17:20
99F:→ tw88: 不出棒怕好球阿 哭哭 07/11 17:20
100F:推 lml99: UG8 07/11 17:21
101F:→ icecold52: 大概是主审怕上方角度的镜头 会被发现裤子没穿吧 XDD 07/11 17:21
102F:→ tw88: fail 07/11 17:21
103F:推 davidrick: LM今年这种飞球漏掉好多次... 07/11 17:22
104F:推 cissant: 没有12秒逆 07/11 17:28
105F:推 keans0785: 来支长打 07/11 17:28
106F:→ keans0785: 投手自己拖时间啊。。。 07/11 17:30
107F:推 freedomshit: 果然好球带是看心情再判的 07/11 17:31
108F:推 keans0785: Der龙对着义大哪位球员在嘴碎啊? 07/11 17:33
109F:推 toms913214: 是小三吗? 07/11 17:33
110F:推 NTJL: 糟糕~看来是秘密出游阿 女生躲成那样 07/11 17:33
111F:→ icecold52: Kisscam 有时候真的是强迫中奖啊 07/11 17:34
112F:推 sungastill: 还不错啊 07/11 17:34
113F:→ keans0785: 一拳啊~ 07/11 17:34
114F:→ NTJL: 有些可能是朋友 就有点尴尬了 07/11 17:35
115F:→ keans0785: 打的真准。。。 07/11 17:35
116F:→ sungastill: 衰QQ 07/11 17:35
117F:→ keans0785: 跑真快 07/11 17:37
118F:嘘 sungastill: 民视这镜头好烂 07/11 17:37
119F:→ keans0785: 出局如风 07/11 17:37
120F:→ icecold52: 这出局真快 XD 07/11 17:37
121F:推 lin0322: 哈哈 拼命打第一球 07/11 17:37
122F:推 BEEEEE: 啥,上个厕所出来又change了... 07/11 17:38
123F:推 keans0785: 世大运不可能打了 07/11 17:42
124F:推 mirror0: 世大运怎麽了 07/11 17:46
125F:→ NTJL: 喔喔 今天看起来很多人 07/11 17:46
126F:推 keans0785: 6千? 07/11 17:47
127F:→ keans0785: 小叮当中弹 07/11 17:48
128F:推 mimiiy: 今天有活动,人数有比较多 07/11 17:50
129F:推 goodevening: 触击搞到差点双杀 07/11 17:50
130F:推 CarrieWhite: 高雄牛迷很热情声音很大耶 XDDD 07/11 17:50
131F:推 sungastill: 咖啡打不好守不好战术执行不好 颇惨 07/11 17:50
132F:推 st900278: 死到有剩 07/11 17:51
133F:推 LoveCheer: 笑死 没人了吗 这一军的喔?哪队的 07/11 17:51
134F:推 ichiro14: 妹居客! 07/11 17:51
135F:→ philxiao: 连续两个自杀Play…u 07/11 17:52
136F:→ goodevening: 今年阻杀表现最好的结果是小叮当 07/11 17:52
137F:推 NTJL: 惨 慢一大步~ 传歪了说 07/11 17:52
138F:推 iceyang: 为了掩护挥了大坏球 07/11 17:52
139F:→ mimiiy: 打带跑,战术执行失败是WW不是咖啡 07/11 17:52
140F:推 ohiyohuang: 小叮当传球好好笑XD 07/11 17:52
141F:→ jack482653: 惨 07/11 17:52
142F:→ icecold52: 不要小看小叮当的空气炮啊 总是会有打中的一次 XDDD 07/11 17:53
143F:推 aa97531aa: 爽 07/11 17:53
144F:→ icecold52: go go power ranger 结果现场教学三振舞镜头没拍 XD 07/11 17:53
145F:推 sungastill: 我是说前面那个触及 07/11 17:54
146F:推 cissant: ANU的自HIGH潮~~ 07/11 17:54
147F:推 binzip: 不算自杀啦!是小叶玩输红中 07/11 17:54
148F:推 goodevening: 风很大吗??差点失误 07/11 17:54
149F:→ goodevening: 近况真的超好,昨天可惜了 07/11 17:56
150F:推 tw88: 怒上二垒 07/11 17:56
151F:→ straight0711: 三振秀 07/11 17:58
152F:推 tw88: 微笑捕手-笙 07/11 17:59
153F:推 ft090646: 三振秀 07/11 17:59
154F:推 mimiiy: 啾咪林... 07/11 17:59
155F:推 sungastill: 达哄总是一副苦瓜脸,林补总是一副揪咪脸XD 07/11 18:01
156F:推 m85037: 味全龙 07/11 18:03
157F:推 sungastill: 泰山不给上,龙迷早就从狮子场绝迹啦 07/11 18:03
158F:→ cpcpao: 今天一拳跟大师兄轮流NP是~~ 07/11 18:04
159F:推 goodevening: ug8!! 07/11 18:04
160F:推 straight0711: 爽 07/11 18:04
161F:→ CarrieWhite: 用力轰过来没拆下来 XDDDDDDD 07/11 18:04
162F:推 liitracy: 全垒打啦,终於 07/11 18:04
163F:推 kress: 不~用~看罗~~ 出去啦 07/11 18:04
164F:推 muching: 20轰 07/11 18:05
165F:→ straight0711: HR!!!!! 07/11 18:05
166F:推 StephenLai: 国辉终於拉肚子啦 开心!!! 07/11 18:05
167F:推 charles20267: 今天一定肚子不舒服 07/11 18:05
168F:推 ribbonchiao: 红中为什麽不选~~~ 07/11 18:05
169F:推 jj1004: 我辉终於醒了 还是要靠米糕XDD 07/11 18:05
170F:→ goodevening: 终於...看可以摆脱低潮吗 07/11 18:05
171F:推 tw88: 第20发红不让!!!!!!!!!!!!!!!!!!! 07/11 18:05
172F:→ kress: 红中:我不後悔 07/11 18:05
173F:→ icecold52: 果然是桃园王 见一次打一次 07/11 18:05
174F:→ straight0711: Bˊ2B 07/11 18:05
175F:推 phix: 红中:我们外野满了 07/11 18:05
176F:→ kress: B2B!!! 07/11 18:05
177F:→ muching: B2B!!! 07/11 18:05
178F:推 applejone: B2B... 07/11 18:05
179F:→ liitracy: B2B 07/11 18:05
180F:→ charles20267: B2B爽啦 07/11 18:05
181F:→ StephenLai: B to B!!!! 07/11 18:05
182F:→ giancarloye: B2b 07/11 18:05
183F:→ kress: 这才是EDA的恐怖三四棒啦 07/11 18:06
184F:→ jj1004: 神全最近也挺虎烂的....专打洋投 07/11 18:06
185F:→ tw88: 鳖秃憋 不憋啦!!!!!!! 07/11 18:06
186F:推 YESGOTO: 垒上无人安打王 07/11 18:06
187F:推 BEEEEE: 阳炮来一发? 07/11 18:06
188F:→ woody31317: 神全好猛~ 07/11 18:06
189F:推 philxiao: 太神了...... 07/11 18:06
190F:→ tw88: 太开心拉~~~~ 07/11 18:06
191F:→ kress: 我以为是重播= = 07/11 18:06
192F:→ sniperlin: 都打到那个用力轰过来的帆布... 07/11 18:07
193F:→ aoquan: 太爽啦 07/11 18:07
194F:推 straight0711: 正义必胜 07/11 18:07
195F:推 stevefran: B2B 07/11 18:08
196F:→ philxiao: 原来来有顺风?! 07/11 18:08
197F:推 muching: 两轰的落点好接近 07/11 18:08
198F:→ straight0711: 左外野明明逆风 07/11 18:08
199F:→ philxiao: 趁顺风,阳炮来B2B2B吧! 07/11 18:08
200F:→ muching: B2B2...BB 07/11 18:09
201F:推 jajaja123: 这好球带… 07/11 18:09
202F:推 mimiiy: 阳炮没轰 07/11 18:09
203F:→ straight0711: 兰退潮了 07/11 18:09
204F:→ MVM: LAMIGO那个帆布要不要先拆下来 07/11 18:10
205F:推 whshsquall: 最近的神全很猛 07/11 18:14
206F:嘘 ofpurity: 又是老耿求婚 07/11 18:15
207F:→ icecold52: 又来上演求婚戏码了 07/11 18:15
208F:推 giancarloye: 求婚 07/11 18:15
209F:推 wb7346: 好事给推 07/11 18:16
210F:推 sniperlin: 是在比赛比到一半吗?? 07/11 18:16
211F:推 phoenixamare: 嫁了啦 07/11 18:16
212F:→ dm03: 不能用中场吗..... 07/11 18:16
213F:嘘 alan0204: 无聊 07/11 18:17
214F:推 CarrieWhite: 比到一半求婚不太好吧?有中场呀 07/11 18:17
215F:→ sniperlin: 求婚成功 马上安打 07/11 18:17
216F:嘘 a26892296: 时机不对吧= = 07/11 18:17
217F:→ amani168: 为什麽不是在五下结束???????????????????????????????? 07/11 18:17
218F:推 andy89202033: 比到一半求婚? 07/11 18:17
219F:推 Windows8: 为何求婚一定要到球场 07/11 18:17
220F:→ rockyegg: \拒绝他/\拒绝他/\拒绝他/\拒绝他/\拒绝他/\拒绝他/ 07/11 18:17
221F:→ sniperlin: 球团不会请教一下恰恰吗??? 时机安排得这麽糟 07/11 18:17
222F:嘘 ofpurity: 马上安打 07/11 18:17
223F:推 Miketroutla: 男主角是研究所学长 很有背景 07/11 18:17
224F:推 usojapanese: 中场好+1 别影响其他人看球 07/11 18:17
225F:→ a26892296: 义大不懂时间分陪吗= =? 07/11 18:17
226F:→ alan0204: 这种的就是要女方不能拒绝 不然很难看 07/11 18:17
227F:推 pizip: 场控很糟啊... 07/11 18:17
228F:推 scm6310: 可能五下球团有活动? 07/11 18:17
229F:→ CarrieWhite: 气氛也不对,这样只剩新人在浪漫说 07/11 18:18
230F:→ Windows8: 要是我就喊拒绝他 07/11 18:18
231F:→ sniperlin: 万一问你愿意吗? 然後全场都在喊三振他 07/11 18:18
232F:推 wb7346: 三振他XDDD 07/11 18:18
233F:推 mp3w69: 今天盗得有点爽 07/11 18:19
234F:嘘 Miketroutla: 重点是早就订好结婚日期了,在那边假求婚 无言 07/11 18:19
235F:推 ribbonchiao: 说实话订好结婚日期跟求婚是两件事啊 07/11 18:20
236F:→ ribbonchiao: 现在一堆人都是决定要结婚了再补上求婚仪式 07/11 18:20
237F:推 ivan609: 马上就平手了... 07/11 18:21
238F:推 Windows8: 马上追平= = 07/11 18:21
239F:推 LoveCheer: 追平罗~^_^ 07/11 18:21
240F:推 Miketroutla: 所以两人先谈好要不要结婚然後才求婚吗?什麽鬼 07/11 18:21
241F:推 reborn0301: 咖啡zz 07/11 18:21
242F:→ icecold52: 咖啡小子有扑有交代 07/11 18:21
243F:→ tw88: 2分不够qq 07/11 18:22
244F:推 hu610346: 我以为咖啡扑到了... 07/11 18:22
245F:推 jj1004: 还真的是有扑有交代 07/11 18:22
246F:→ LoveCheer: 求婚都马是为了女生的面子问题 07/11 18:22
247F:→ wb7346: 站位问题? 07/11 18:22
248F:→ reborn0301: 两年前就扑到了 07/11 18:22
249F:→ flameteru: 小心那只也会盗垒 07/11 18:22
250F:→ tw88: 咖啡铺下去真的很接近了 别酸惹qq 07/11 18:22
251F:推 pizip: 很多女生很在意求婚这件事啊...就算已经决定要结婚,少了求 07/11 18:22
252F:→ pizip: 婚的仪式就准备被念一辈子 07/11 18:22
253F:嘘 ft090646: 2分一下就花光了 07/11 18:23
254F:推 goodevening: 一定盗 2出局洪中都下盗垒 07/11 18:23
255F:推 freezee: 嘿 嘿 嘿 嘿 07/11 18:23
256F:推 cpcpao: 小朋友都会 chance @@ 07/11 18:23
257F:推 mystage: 补求婚哪有什麽稀奇的,为了下半辈子的少一则旧账 07/11 18:23
258F:→ tw88: 爱棒球赞拉~ 07/11 18:24
259F:推 NTJL: 小胖近况不太好 07/11 18:24
260F:→ sniperlin: 林智胜感觉会盗 07/11 18:24
261F:→ mystage: 结果是一安,状况真的没很好 07/11 18:25
262F:推 mimiiy: 何南德的脸好像在说「我不会投球了」 07/11 18:25
263F:推 goodevening: 中职洋将的裤子真的掉很快,五六场後就被破解 07/11 18:26
264F:推 Y1999: 这样相比 神鬼佛还满能撑的.... 07/11 18:26
265F:→ icecold52: 突然觉得外野小号手海是正确的 不然呛司曲一吹 也很累 07/11 18:26
266F:→ tw88: 贺南德瞳孔好大 07/11 18:27
267F:推 sniperlin: 微笑BB 换我秀 我秀很久没轰了 07/11 18:27
268F:推 ivan609: 何南德突然走样... 07/11 18:27
269F:推 mystage: 陈俊秀,结束了 07/11 18:27
270F:推 goodevening: 抓我秀?? 07/11 18:28
271F:推 shintz: 何南德怎麽了? 07/11 18:28
272F:→ charles20267: 投不进去了 快换 07/11 18:28
273F:推 NTJL: 刚郭有一球跟詹帅三振的那颗好像差不多 是看牌子给的吗? 07/11 18:28
274F:→ sniperlin: 外角曲球吗? 07/11 18:28
275F:→ goodevening: 我秀乱指挥 07/11 18:28
276F:推 blackhearted: 和难得今天状况真差 07/11 18:28
277F:推 freeclouds: 今天又是三振秀? 07/11 18:28
278F:推 wb7346: 三振秀 07/11 18:29
279F:→ sniperlin: 0S2B 我秀下一球要猛挥了 07/11 18:29
280F:→ wb7346: 残垒秀 07/11 18:29
281F:→ ivan609: 赖师傅热身中 07/11 18:29
282F:→ icecold52: 尤志钦好球带就是这样子啊 很不一致 07/11 18:29
283F:→ tw88: 2B0S qq 07/11 18:29
284F:推 shintz: 3B0S .. 07/11 18:29
285F:→ tw88: 3B0S 07/11 18:29
286F:→ sungastill: 要自爆了....... 07/11 18:30
287F:推 dooroqen: 送灯预备 07/11 18:30
288F:推 mystage: 当人型立牌可以上垒吗? 07/11 18:30
289F:→ goodevening: 到现在一球都没挥 07/11 18:30
290F:→ dooroqen: 你秀不会打就好好选球好吗 07/11 18:30
291F:推 a5480277: 我秀感觉很想挥 但又忍住 07/11 18:30
292F:推 freeclouds: 懒飞秀 07/11 18:30
293F:推 dodotank: 乎 07/11 18:30
294F:→ sniperlin: 没打好 偏高 07/11 18:30
295F:→ ivan609: 打出去 抖了一下 还好... 07/11 18:30
296F:推 tsairay: 下庄啦 07/11 18:30
297F:推 Windows8: G……… 07/11 18:30
298F:推 cissant: 打坏球 铺 07/11 18:30
299F:推 muching: 满垒残 07/11 18:30
300F:→ tw88: 下庄 07/11 18:30
301F:→ icecold52: 陈俊秀也蛮惨的 各种残垒 07/11 18:30
302F:→ shintz: 差几公尺就能当英雄了 07/11 18:30
303F:推 babaholala: 哀呀~~~~~~~~~~~~~~~ 07/11 18:30
304F:→ flameteru: D槽show 07/11 18:30
305F:→ Windows8: 没有S 07/11 18:31
306F:推 jj1004: 何今天好多保送 状况普普 07/11 18:31
307F:→ sungastill: 下庄XD 07/11 18:31
308F:→ ft090646: 出局秀 07/11 18:31
309F:→ rock0525: 高飞秀.... 07/11 18:31
310F:→ flameteru: 高国辉打这颗就出去了 07/11 18:31
311F:推 ivan609: 林捕今天不错哦~~~ 07/11 18:34
312F:推 tw88: 一垒安 赞 07/11 18:35
313F:推 goodevening: 一定触击 07/11 18:35
314F:→ goodevening: 不触击dp机率太高 07/11 18:35
315F:推 CarrieWhite: 休息室战术是大威下的说,所以还是大威作战吗 07/11 18:35
316F:推 mimiiy: 叶总当球员的时候好像没这麽帅啊 ... 07/11 18:36
317F:推 ivan609: 吓死人= =.... 07/11 18:36
318F:推 babaholala: 这出局吧??? 07/11 18:36
319F:推 EdisonQ: ... 07/11 18:36
320F:推 jj1004: 收打打成飞球 真惨XD 07/11 18:36
321F:→ ivan609: 脚离垒啦~~SAFE无误 07/11 18:37
322F:→ babaholala: 啊 脚离开了 07/11 18:37
323F:→ goodevening: 战术终结者 07/11 18:37
324F:推 reborn0301: 自杀棒不意外 07/11 18:37
325F:推 shintz: 传歪了 07/11 18:37
326F:→ ivan609: WW打的跟点的没两样...= = 07/11 18:37
327F:推 tw88: 秃奥 07/11 18:38
328F:推 sungastill: 自杀棒 咖啡 确定 07/11 18:38
329F:→ ivan609: 火哥 得点圈+歪果人啊!!!!!! 07/11 18:38
330F:→ goodevening: 佛真的是吃局数之王,用球很省 07/11 18:38
331F:推 kenny770322: 林补到底跟林智平在笑什麽? 07/11 18:40
332F:推 tw88: 腿跟臂之间的对决火花 ^.< 07/11 18:41
333F:推 twnc1006: 两个看起来很好 一直笑= = 07/11 18:42
334F:→ twnc1006: 林补看到微笑锅也一直笑啊 07/11 18:43
335F:推 tw88: 大义觉得口渴(望~ 07/11 18:45
336F:→ hu610346: 林捕真的好帅... 07/11 18:46
337F:→ komikado5566: 这啤酒节女郎… 07/11 18:47
338F:→ shintz: 欧叭啦 07/11 18:49
339F:推 ofpurity: 捕手炮阿 07/11 18:49
340F:推 lml99: 这跑步律动XDDDDDDDDDDDDDD 07/11 18:49
341F:推 FannWong: 矮肥矮肥 07/11 18:49
342F:推 wb7346: 台体四棒 07/11 18:49
343F:推 sungastill: 钓虾快来吧,这残破守备真的很晕= = 07/11 18:49
344F:→ shintz: 镜头摇得很厉害阿XD 07/11 18:50
345F:→ shintz: 60号反映挺快 07/11 18:50
346F:推 dxcer: 又是海... 07/11 18:51
347F:推 cpcpao: = =詹帅会被玩死 07/11 18:51
348F:推 linchung: 抗议拉~~~ 07/11 18:52
349F:推 sungastill: 唐基在做啥XD 07/11 18:52
350F:推 s638450: 洪中受不了了XD 07/11 18:52
351F:推 scm6310: ????? 07/11 18:52
352F:推 comicgirl: 吵架王来了 07/11 18:52
353F:推 yankees733: 红中来了 07/11 18:52
354F:推 wb7346: 大声了大声了 07/11 18:52
355F:推 ofpurity: 洪中很怒喔 07/11 18:52
356F:推 iceyang: 红中终於受不了惹 靠 07/11 18:52
357F:推 yyc1217: 请勿拍打喂食 07/11 18:52
358F:推 babaholala: 不是说好坏球没得质疑的嬷 07/11 18:52
359F:推 lml99: 上来干谯完马上回去XDDDDDDDDDD 07/11 18:52
360F:推 murray: 红中怒了 07/11 18:52
361F:推 terry66: 这球真的很夸张 哈哈 07/11 18:52
362F:推 jj1004: 这球连投捕应该都觉得好笑 主审真的很....XDDDD 07/11 18:52
363F:推 tw88: 阿志 uccu 07/11 18:52
364F:推 a26892296: 尤……不意外 07/11 18:52
365F:推 Uballchien: 这个裁判就之前那个阿.... 07/11 18:52
366F:推 lin0322: 主审没用 不敢把红中赶出去 07/11 18:52
367F:→ Finn5566: 尤志钦到底有什麽资格可以站主审zzz 07/11 18:52
368F:→ wb7346: 看骂完会部会改善 07/11 18:52
369F:→ sungastill: 菜逼八被定了 07/11 18:52
370F:→ comicgirl: 原来今天是尤啊 那..... 07/11 18:53
371F:→ yyc1217: 为什麽不赶出去 好球带不是不能质疑? 07/11 18:53
372F:推 jajaja123: 拐气罗 竟然没被赶出去 07/11 18:53
373F:→ ofpurity: 主审跟细汉的一样XD 07/11 18:53
374F:推 e7660239: 难怪会被冲撞 07/11 18:53
375F:推 hu610346: 神全最近守备怎麽了... 07/11 18:53
376F:推 pchunter: 好球袋不能质疑吧?应该要赶出去 07/11 18:53
377F:→ iceyang: 没得质疑 可以抗议阿 xD 07/11 18:53
378F:推 qiryimvjp: 这主审根本也太夸张 这好球XDDDD? 07/11 18:53
379F:推 andy89202033: 骂的好 这裁判烂死了 07/11 18:53
380F:推 w921216: 那球高成那样= = 07/11 18:53
381F:→ mimiiy: 看不下去,变形尤 07/11 18:53
382F:推 sharkhead: 这裁判不意外阿,活该被冰二军 07/11 18:53
383F:→ sungastill: 红中骂得好,刚那颗太扯,重点变形虫超严重 07/11 18:53
384F:推 oldEn15: 水准真差.... 07/11 18:53
385F:推 KaitouKid: 詹帅前一个打席被三振那球也很扯 07/11 18:53
386F:推 bignoob: 那球明显是误判 07/11 18:53
387F:推 GAIEGAIE: 自知理亏啊 判成这样 07/11 18:53
388F:→ iceyang: 红中已经比乡民好了好嘛 乡民干多久惹 xD 07/11 18:53
389F:推 dxcer: 尤不敢赶人 XD 07/11 18:53
390F:→ flameteru: 这赶出去 可能要被乡民酸死了 07/11 18:54
391F:推 asstitle: 主审乖乖站着听洪中训话 太扯了吧 07/11 18:54
392F:→ jj1004: 主审好球带每个都很怪XDD 07/11 18:54
393F:推 TheAnswer: 不懂为什麽还要让他站主审 根本凌虐球员 07/11 18:54
394F:推 scm6310: 主审赶下班吧 07/11 18:54
395F:→ andy89202033: 要赶就赶阿~看你心不心虚 07/11 18:54
396F:→ flameteru: 大威准备好了没 07/11 18:54
397F:嘘 sandemo: 红中好像韩国人 07/11 18:54
398F:推 reborn0301: 还有人挺裁判XD 07/11 18:55
399F:→ zsxdaqwe: 上来质疑好球带主审只能立正站好说教 07/11 18:55
400F:推 twnc1006: 自己去看尤志钦站主审判的场ZZZ 07/11 18:55
401F:→ jj1004: 老实说 今年已经算好了 前两年要拿竹竿打 07/11 18:55
402F:推 Finn5566: 最扯的是他都站有LM的比赛 难怪洪中会美送 07/11 18:55
403F:→ amani168: 有点好笑 洪中:价跨 ㄍㄧㄡˋ一洗咩安爪怕 07/11 18:55
404F:推 globekiller: 主审乖乖被训 哈哈XDDD 07/11 18:55
405F:→ sandemo: 红中转气失败 07/11 18:55
406F:→ reborn0301: 不要得利了就合理化裁判好吗 07/11 18:55
407F:推 tw88: 高炮ready~~~ 07/11 18:56
408F:推 Midiya: 尤本来就很夸张 被电刚好 07/11 18:56
409F:推 wb7346: 欠喷 07/11 18:56
410F:推 BlackBriar: 乱判一通,站着被训刚好而已 07/11 18:56
411F:推 dm03: 前两年好歹外角海还算固定~尤是超级变形好球带 07/11 18:56
412F:推 zsxdaqwe: 3台湾裁判都这样软软的实在很烂 07/11 18:57
413F:推 Finn5566: 是说之前有人不是有截影片寄去联盟 看来是石沉大海了 07/11 18:57
414F:推 mowkow0611: 猛打 07/11 18:58
415F:推 muching: 猛打赏 07/11 18:58
416F:→ terry66: 洪中应该快爆炸了 哈哈 07/11 18:58
417F:推 shintz: 990h 07/11 18:58
418F:推 sungastill: 猛猛猛 07/11 18:58
419F:推 Qiaodi: amani大你也满厉害的~还听得出来红中在讲什麽 07/11 18:58
420F:推 jj1004: 991了 好快 07/11 18:58
421F:推 ichiyo: 尤真的超烂 蹲下来也特别慢 07/11 18:58
422F:推 binzip: 垒上无人安打王(刚那只也是 07/11 18:58
423F:推 yyc1217: M9 07/11 18:58
424F:→ mowkow0611: 好险 07/11 18:58
425F:→ yyc1217: 还是M10? 07/11 18:59
426F:推 twnc1006: 之前国际裁判就有说中职裁判都没有送出国训练过 07/11 18:59
427F:推 shintz: 慢跑上三垒XD 07/11 19:00
428F:推 tw88: 詹帅守备瞬间转身好帅 07/11 19:00
429F:推 muching: 刚如果LM回传加快,神全慢跑会被刺杀 07/11 19:00
430F:推 sungastill: 义大与LM守备一个天一个地 07/11 19:01
431F:推 scm6310: QQ 07/11 19:03
432F:嘘 terry66: 果然 又变了 这球拉掉 07/11 19:03
433F:推 CarrieWhite: 也太外角了,都压线了 07/11 19:03
434F:推 bignoob: 海海海海海 07/11 19:03
435F:嘘 hu610346: ........靠北XDDD这好球 07/11 19:03
436F:推 lunqun35: 拉掉…~~ 07/11 19:03
437F:→ bignoob: 这主审真的戏份很多 07/11 19:03
438F:推 andy89202033: 变形虫 不意外 07/11 19:03
439F:推 m85037: 外角海 07/11 19:03
440F:推 komikado5566: 外角海来罗 07/11 19:03
441F:推 lp210723: 这到底什麽裁判 07/11 19:03
442F:→ shintz: 这根本打不到也会被拉掉.. 07/11 19:03
443F:→ terry66: 这位置 林WW好球 火哥坏球 高国辉坏球 黑峻好球 07/11 19:03
444F:推 jj1004: 都给主审玩就好了阿XDDD 07/11 19:03
445F:→ CarrieWhite: 大威也出来park一下吧 XDDD 07/11 19:03
446F:推 littlethree: 有点外角 07/11 19:03
447F:推 mysterybear: 这好球你信??????? 07/11 19:03
448F:推 Qiaodi: 请问专业的乡民~这样算是还一球吗XD 07/11 19:04
449F:嘘 jengjian: 洪生路怎麽不出来抗议了 07/11 19:04
450F:推 binzip: 应该换小叶出来喊一下 07/11 19:04
451F:推 k87559527: 扯 07/11 19:04
452F:推 oldEn15: 其实这球还好 詹的比较夸张 07/11 19:04
453F:→ jj1004: 好球带一致的滥XDDD 07/11 19:04
454F:推 easybaby: ??? 07/11 19:04
455F:嘘 t20000911: 鬼神好球带XDDDDDDDDD 07/11 19:04
456F:→ lp210723: 尤已经超越所有了 07/11 19:04
457F:→ andy89202033: 小叶可以出来喊阿~科科 07/11 19:04
458F:推 ubei: 詹是外角又偏高..这裁判眼睛真得...XDD 07/11 19:04
459F:→ Finn5566: 尤的问题这麽多 到底为什麽还让他继续站? 07/11 19:04
460F:→ jengjian: 洪生路只会浪费大家时间 07/11 19:04
461F:嘘 ft090646: 红中这球怎不抗议 07/11 19:04
462F:推 WilliamsChen: 主审超抢戏XD 07/11 19:05
463F:→ jj1004: 怕小叶出来喊 反而被赶出去XDD 07/11 19:05
464F:推 kiliasnake: 自家球员总教练要自己出来阿 扯洪中干麽 07/11 19:05
465F:推 bignoob: 可以叫叶总抗议啊 07/11 19:05
466F:推 pchunter: 龙迷在干嘛? 07/11 19:05
467F:→ Finn5566: 说请红中抗议的还真趣味 该抗议也是你们叶总出来吧 07/11 19:05
468F:→ lml99: 控球好跟选球眼对这位主审完全没用阿 07/11 19:05
469F:推 terry66: 正妹 07/11 19:05
470F:推 helen7510: 红中这球干嘛出来~要出来也是叶总出来阿 07/11 19:05
471F:→ WilliamsChen: 叫洪中出来的是....? 07/11 19:06
472F:推 a5480277: 棉花糖的妹妹~~ 07/11 19:06
473F:推 babaholala: 卖棉花糖的也要比肌肉XDDD 07/11 19:06
474F:推 hu610346: 棉花糖女孩很正...腿很漂亮 07/11 19:06
475F:推 yyc1217: 钱难赚 07/11 19:06
476F:→ Finn5566: SP投6局 老疲今天会上吗? 07/11 19:06
477F:推 binzip: 七下换投了,打线上班喽 07/11 19:06
478F:→ hu610346: 竟然没曼斗 你敢信? 07/11 19:07
479F:推 LKN555: 哈刚那样棉花糖应该会比较好卖吧XDD 07/11 19:08
480F:推 scm6310: 别再老皮了.... 07/11 19:08
481F:推 hu610346: WW真的帅 07/11 19:09
482F:推 jj1004: 我犀你猿又要牛棚大对决了... 07/11 19:09
483F:→ WilliamsChen: E 07/11 19:11
484F:推 EnosKP: 冠威的日常 07/11 19:11
485F:推 thirdblue: 冠威~~~~~~~~ 07/11 19:11
486F:→ simon3458: EEEEEEEEEEEEEE 07/11 19:11
487F:推 StephenLai: 冠威又在付学费了 07/11 19:11
488F:推 NTJL: 冠威4NI 07/11 19:11
489F:推 wb7346: 又要召唤贾西亚了 07/11 19:11
490F:→ hu610346: 正常能量释放 07/11 19:11
491F:推 k87559527: E 07/11 19:11
492F:推 shintz: 先发任务(1/1) 07/11 19:11
493F:推 joey89116: 87 07/11 19:11
494F:推 LoveCheer: 不信邪XDDDD 摆三垒 07/11 19:11
495F:推 yyc1217: 又要从E开始被逆转了吗(抖) 07/11 19:12
496F:推 reborn0301: 该换老皮了吧 07/11 19:12
497F:推 shanaandlai: 左投克左打 07/11 19:12
498F:→ EnosKP: 林:三垒失误换掉我Q_Q 07/11 19:12
499F:推 jj1004: 罗伯特又嫌投手太多了 有够无言 07/11 19:12
500F:→ k87559527: 付学费 07/11 19:12
501F:→ yyc1217: 接下来会换老皮吗 07/11 19:12
502F:推 Finn5566: 会是一人左吗? 07/11 19:12
503F:→ k87559527: 要天天皮吗 07/11 19:13
504F:推 simon3458: 4634 07/11 19:13
505F:推 dxcer: 4634 07/11 19:13
506F:推 bignoob: 4634人进场 07/11 19:13
507F:推 RELIFE168: 4634 07/11 19:13
508F:推 StephenLai: 礼拜六人少到离谱 07/11 19:13
509F:→ rock0525: 失误换投手不换野手....XDDD 07/11 19:13
510F:→ babaholala: 平伟 07/11 19:14
511F:推 hu610346: 炸裂文先准备好 我牛常常失非自责分 07/11 19:14
512F:推 devil0915: 周六4634?? 快回到黑暗期的人数了= = 07/11 19:14
513F:→ RELIFE168: 周末又办趴 ........这人数不理想阿 07/11 19:14
514F:推 LoveCheer: 人好少 明年不会排60场了吧? 07/11 19:14
515F:推 LaBoLa: 今天世大运冠军赛,这样已经很好了 07/11 19:14
516F:推 oddhand: 星期六x暑假还不到五千人@@ 07/11 19:14
517F:→ kenny770322: 换平伟,球速大概八万一 07/11 19:14
518F:推 dlchang5810: 这应该是平日的进场人数吧? 07/11 19:14
519F:→ devil0915: 如果今天是遇到喵喵,那人数之低可能会无法想像 07/11 19:15
520F:推 whshsquall: 冠威失误感觉要失分了 07/11 19:15
521F:→ hicker: 黑暗期还没这麽多人.... 07/11 19:15
522F:推 jj1004: 罗伯特有没有算过他左投克左打成功率........ 07/11 19:16
523F:推 EnosKP: 郭严文这contact..... 07/11 19:16
524F:→ yyc1217: 失误→换投→失分 07/11 19:16
525F:→ wb7346: 猛将 07/11 19:17
526F:推 StephenLai: 冠威失误必失分似乎成了定律了 07/11 19:17
527F:推 LoveCheer: 神调度 07/11 19:17
528F:→ shintz: ........又是这套剧情 07/11 19:17
529F:推 KG8807037: 以左克左看他没一次成功的...搞屁啊... 07/11 19:17
530F:→ jj1004: 林正丰投的好好的 笑死 07/11 19:17
531F:推 bignoob: 剧情好像似曾相似? 07/11 19:17
532F:推 BellamyLee: 为什麽我秀被换? 07/11 19:17
533F:推 zoosd: 臂力还真烂 07/11 19:17
534F:推 Y1999: 阳炮失误是不是必掉分阿... 07/11 19:17
535F:→ wb7346: WW往哪传............... 07/11 19:17
536F:→ Finn5566: hu神算 07/11 19:17
537F:推 EnosKP: 冠威你XDDDDDDDDDDDDDDDD 07/11 19:18
538F:→ shintz: 镜头被骗啦XDDD 07/11 19:18
539F:推 dodotank: 好个 Pump Fake 07/11 19:18
540F:推 monkeyannie: XDD 07/11 19:18
541F:→ jj1004: 假动作过人XD 07/11 19:18
542F:→ lml99: 哪招拉 07/11 19:18
543F:→ reborn0301: 好险没传 07/11 19:18
544F:→ StephenLai: 假动作骗摄影师之术 07/11 19:18
545F:推 thirdblue: 骗到摄影师XDDDD 07/11 19:18
546F:→ wb7346: 你DAJ ? 07/11 19:18
547F:推 lin0322: 丰哥可怜 该结束一局变败投候选 07/11 19:18
548F:推 blackhearted: 阳冠威是三小 07/11 19:18
549F:推 m85037: 骗到摄影师XDDDD 07/11 19:18
550F:→ NTJL: 摄影师:............. 07/11 19:18
551F:推 yyc1217: XDDDDDD 07/11 19:18
552F:推 tomashsue: 阳冠威你是咧从三小 07/11 19:19
553F:推 muching: 阳冠威就是没有守备天分的人,不管C,3B或LF,摆哪都不对 07/11 19:19
554F:推 Qiaodi: 哈哈~假动作~骗民视的摄影师啦 07/11 19:19
555F:→ hu610346: 陈俊秀怎麽了? 07/11 19:19
556F:嘘 a0973400210: 对自己传球真是没信心 07/11 19:19
557F:→ jj1004: 林正丰衰到爆 自己还没机会解决 还被换下 07/11 19:19
558F:→ m85037: 骚宝宝 07/11 19:19
559F:推 fu456: 好好奇冠威真的传 牛牛们会怎样XDDDD 07/11 19:19
560F:推 a111111zz: 先垫步结果踩三垒 07/11 19:19
561F:→ NTJL: 没信心个头啦 那球根本不用传 07/11 19:19
562F:推 dlchang5810: 应该有队友喊踩3垒就好了吧! 07/11 19:19
563F:→ fu456: 歪 07/11 19:19
564F:推 crime: 三垒不处理,义大就是没竞争力。 07/11 19:20
565F:嘘 g220809846: 阳冠威还是快点去红珊瑚练几年再说吧。 07/11 19:20
566F:推 straight0711: 左右病的极致 07/11 19:20
567F:→ tomashsue: 看了真的会怒,超怒 07/11 19:20
568F:→ WeAntiTVBS: 永维去左外野了 07/11 19:20
569F:→ g220809846: 三垒守备率0.769是要跟人家打什麽职棒? 07/11 19:20
570F:推 andy89202033: 他头脑反应太慢了吧 这球不用考虑传一垒吧 直接采垒 07/11 19:20
571F:推 chery1234: 大义好可爱XDD 07/11 19:20
572F:嘘 wb7346: 谁来解释这守备位置 07/11 19:20
573F:推 monkeyannie: 音乐XD 07/11 19:20
574F:推 mystage: 又来了,德龙一垒 07/11 19:21
575F:→ crime: 阳的打击威力根本不足以让他占着三垒位置呀 07/11 19:21
576F:→ jj1004: 林正丰好歹也是胜利组 2人出局1垒有人 换投手... 07/11 19:21
577F:→ shintz: 增加爱将的守备位置 上场机率up 07/11 19:21
578F:→ muching: 的确是没信心,正常守备下那一球传一垒比踩三垒还更稳 07/11 19:21
579F:推 philxiao: 为什麽不是林智胜站一垒?! 07/11 19:22
580F:推 LoveCheer: 义大就没人才啦 有什麽办法? 07/11 19:22
581F:推 oddhand: 兰斯佛撑到完投吧 米糕现在没有胜利组可以用啊 07/11 19:22
582F:→ muching: 外角海海海 07/11 19:26
583F:推 bignoob: 本垒板外面半颗到一颗 07/11 19:26
584F:→ icecold52: 我佛慈悲啊 居然撑到七局了 XD 07/11 19:26
585F:推 blueasoo: 开演唱会才4000多人 有点惨 07/11 19:26
586F:推 globekiller: 米糕只有胜利告别组 07/11 19:27
587F:推 yyc1217: 小叶出来抗议一下呀 我想看会不会被尤赶出去 07/11 19:27
588F:推 a12367227: 姊姊这场又QS了 07/11 19:28
589F:推 devil0915: 骚宝宝今日回来当一日啦啦队吗? 07/11 19:28
590F:→ a12367227: 啊 看错 07/11 19:28
591F:→ a12367227: 可能拉票吧 07/11 19:28
592F:推 bignoob: 欺负60号手短喔 07/11 19:29
593F:→ a8330028: = = 这怎麽打 07/11 19:29
594F:推 hu610346: 测速枪呢? 07/11 19:29
595F:→ hu610346: 刘芙豪好可爱喔XDDDD矮矮胖胖的哈哈 07/11 19:30
596F:→ hu610346: 更正 刘时豪 07/11 19:30
597F:→ hu610346: 守备组无误... 07/11 19:31
598F:→ hu610346: 人怎麽都不见了 没人陪我聊天了? 07/11 19:31
599F:→ hu610346: 这边好空旷喔哈哈哈哈哈阿哈哈 好无聊 我回队板好了@@ 07/11 19:32
600F:推 bignoob: 空虚 寂寞 觉得冷? 07/11 19:32
601F:推 s65830056: 阁下不就在跟自己聊天了吗? 07/11 19:32
602F:推 b0850: 这种懒散的守备XD 07/11 19:32
603F:推 sungastill: 大胖偷酸红中没选高国辉XD 07/11 19:33
604F:推 Leaflock: 滚的好慢 07/11 19:33
605F:推 wb7346: 散步野球 07/11 19:33
606F:推 NEOdesu: 大胖偷酸红中不选高国辉 07/11 19:33
607F:推 philxiao: 这种打二垒安打XD 07/11 19:33
608F:推 a8330028: EDA内野失误送垒包 外野散漫送垒包 07/11 19:33
609F:推 mimiiy: 看得很没力@@ 07/11 19:33
610F:推 bignoob: 等等LM油罐牛棚上场就有爆点了 07/11 19:34
611F:→ icecold52: 詹帅打击率快跌破3成了 这样子怎麽结婚啊?!!! XDDD 07/11 19:35
612F:推 NEOdesu: 可能要单挑火哥抢最佳九人才能结婚吧XD 07/11 19:37
613F:推 sungastill: 詹帅今年很难嫁出去惹XD 07/11 19:37
614F:→ ivan609: 下庄!! 07/11 19:37
615F:→ sungastill: 不过金手套没问题 07/11 19:37
616F:推 iceyang: 宝宝~~~ 07/11 19:39
617F:推 yyc1217: 宝宝的妆是不是变淡了 07/11 19:39
618F:→ bignoob: FB勳~~~ 07/11 19:39
619F:→ bignoob: 收视率up up 07/11 19:39
620F:推 ivan609: LM牛棚上班啦 比赛正式开始!? 07/11 19:40
621F:→ bignoob: 连H HR 平手 逆转 今天你选哪道? 07/11 19:40
622F:推 sungastill: 啦啦队排名 PS>LMG>UG>RA 07/11 19:40
623F:推 pilgrimangus: 收视...不!点阅率来了 07/11 19:40
624F:→ ivan609: 中穿HHHHHHHHHHHHHHHHHHHHHH 07/11 19:41
625F:→ linchung: 如果EDA追平或超前 下局会上老皮吗 07/11 19:41
626F:→ bignoob: HHHHHHHHH 07/11 19:41
627F:→ pilgrimangus: hu大,快回来聊天XD 07/11 19:41
628F:→ flameteru: 又要抖了 07/11 19:41
629F:推 WINKAO: 谁说落後老皮就不能上的 XD 07/11 19:41
630F:→ sungastill: 你有张良乡,我有过墙皮 Q_Q 07/11 19:41
631F:→ CarrieWhite: 追平不知道,超前一定是lo49吧? 07/11 19:42
632F:→ ivan609: 要火哥点!? 07/11 19:42
633F:推 oddhand: 竟然没让兰斯佛完投 米糕输定啦 07/11 19:43
634F:推 cissant: 要爆了 噗 07/11 19:43
635F:→ flameteru: 假点吧 骗坏球 07/11 19:43
636F:推 peter5214: 猴子感觉不是很想赢 07/11 19:43
637F:推 bignoob: 真的点了!? 这战术... 07/11 19:43
638F:推 ivan609: 真的点了... 把机会传给辉全!!! 07/11 19:44
639F:推 tw88: XDDDD 07/11 19:44
640F:推 hu610346: 陈俊秀怎麽不见了 07/11 19:44
641F:推 straight0711: BB 07/11 19:44
642F:推 pilgrimangus: k人啦 07/11 19:44
643F:→ bignoob: 丢人拉~~丢人拉 07/11 19:44
644F:→ ivan609: 丢人啦!!!! 07/11 19:44
645F:推 shintz: ..... 07/11 19:44
646F:推 StephenLai: 太扯了 07/11 19:44
647F:推 murray: 高国辉好像怒了 XD 07/11 19:44
648F:→ leonjapan: 控球惨不忍睹...................... 07/11 19:44
649F:→ ft090646: 打太烂被换下去? 07/11 19:44
650F:→ icecold52: 丢人啦 丢人啦 丢人啦 居然敢丢桃园王 07/11 19:44
651F:推 easybaby: QQ 07/11 19:44
652F:→ muching: 高国辉的表情还蛮不爽的 07/11 19:44
653F:嘘 terry0968: 阿嬷的魔球 07/11 19:44
654F:嘘 TristyRumble: 阿嬷魔球 07/11 19:44
655F:→ man790810: 红中又丢人啦 07/11 19:44
656F:推 NEOdesu: Boo~ 07/11 19:44
657F:→ rock0525: 香肠你不错......... 07/11 19:45
658F:→ pilgrimangus: 乡长是想笑吗0.0 07/11 19:45
659F:→ ft090646: 阿骂魔球? 07/11 19:45
660F:嘘 wb7346: 珍藏的魔球 07/11 19:45
661F:→ WeAntiTVBS: 快 多塞几个垒包 想看後几棒打大支的 07/11 19:45
662F:→ tw88: 嘘一个 蛮爱看你fb的说 07/11 19:45
663F:→ Lackland: 大威要生气了 07/11 19:45
664F:→ yyc1217: 今日乡长 明年老皮 07/11 19:45
665F:→ TristyRumble: 内部情资呢 07/11 19:45
666F:推 babaholala: 乡长 你这表情根本讨战啊 07/11 19:45
667F:→ wb7346: 三井全 07/11 19:45
668F:推 pchunter: 高是不是有骂park? 07/11 19:45
669F:→ ivan609: 打到侧腹部... 07/11 19:45
670F:→ cauliflower: 国辉看来很不爽 07/11 19:45
671F:推 a12367227: 魔球降临! 07/11 19:45
672F:推 DukeMonkey: 神全跳投三分啦 07/11 19:45
673F:嘘 shadowmelo: 故意的......红中站出来解释清楚 07/11 19:45
674F:→ straight0711: 三分外线预备 07/11 19:45
675F:推 jenchieh5: 你们怎麽可以让国辉生气 太坏了 07/11 19:45
676F:推 forfan: 会送垒的fu 07/11 19:45
677F:推 oddhand: 好烂的控球 07/11 19:45
678F:→ ivan609: 神全再炸一个吧 三分全!!!! 07/11 19:45
679F:推 odsky: 都不是故意的... 07/11 19:45
680F:→ ivan609: ................... 07/11 19:45
681F:推 e7660239: Dp 07/11 19:45
682F:推 a12375111: 乡长会怕桃园王吗 07/11 19:45
683F:→ murray: 一棒击沉!!! 07/11 19:45
684F:→ bignoob: DP 07/11 19:45
685F:→ WeAntiTVBS: GG 07/11 19:45
686F:→ DukeMonkey: DP......... 07/11 19:45
687F:→ pilgrimangus: gg 07/11 19:45
688F:推 s638450: DP 07/11 19:46
689F:→ spy9527: 一全不意外 07/11 19:46
690F:推 andy89202033: 神全dp 07/11 19:46
691F:推 comicgirl: 精算师.... 07/11 19:46
692F:推 terryiory: 一垒空的,第一球被砸到真的会不爽 07/11 19:46
693F:推 lpboyboy: 不累 不累 07/11 19:46
694F:→ icecold52: 居然打了个国庆DP球 这你敢信?! XD 07/11 19:46
695F:推 kyoin: 打这麽扎实.......可惜了 07/11 19:46
696F:推 twnc1006: XDDD 07/11 19:46
697F:→ forfan: dp全 07/11 19:46
698F:推 chigo520: E全 XD 07/11 19:46
699F:→ WeAntiTVBS: 一棒击全 07/11 19:46
700F:→ spy9527: 关键时刻软手王 07/11 19:46
701F:→ wb7346: 计画通 07/11 19:46
702F:→ jenchieh5: 软手了 07/11 19:46
703F:推 shintz: 一棒击沉....这也算啦= = 07/11 19:46
704F:推 hu610346: 打好紮实...唉真可惜 07/11 19:46
705F:→ sharkhead: 这球爽XDD 07/11 19:46
706F:→ flameteru: 强劲打到墙 负运 07/11 19:46
707F:推 Leaflock: 今天的乡长有穿裤子 07/11 19:46
708F:推 sniperlin: 这样大威 会fb喔 07/11 19:46
709F:→ muching: 林益全的关键时刻打率又要被酸了 XD 07/11 19:46
710F:→ ivan609: 打得很强劲 直接找人...... 07/11 19:46
711F:→ oddhand: 今晚FB: 乡民看到了没 这就是实力 07/11 19:46
712F:→ rock0525: 一棒全挂.. 07/11 19:46
713F:→ a12367227: dp...害香肠没fb发了 07/11 19:46
714F:推 goodevening: 触身才有dp 只能说啥 07/11 19:46
715F:推 sungastill: DP 老皮会上吗XD 07/11 19:46
716F:→ shadowmelo: 红中观念 别人丢我的球员都是故意的 07/11 19:46
717F:推 jj1004: 打太准了吧 动都没动.... 07/11 19:46
718F:推 hydexhyde: 不愧是垒上无人安打王 07/11 19:46
719F:推 reborn0301: 又软手 07/11 19:47
720F:→ goodevening: 洪中说eda故意的不是早有定论是故意的? 07/11 19:47
721F:推 toolin: 美式球风会出现吗? 07/11 19:47
722F:推 adam7148: 感谢益全 07/11 19:47
723F:推 popbitch: 报昨天的仇 07/11 19:47
724F:推 asstitle: 连星结束 九下自杀棒应该就三上三下轻松解决 07/11 19:47
725F:推 NTJL: DP仇恨值瞬间盖过HR的好感度 07/11 19:47
726F:→ jj1004: 一双杀又一堆跑出来 之前又躲起来XDD 07/11 19:47
727F:→ a12367227: 香肠可以说别人故意,别人不能说他哦xD 07/11 19:47
728F:→ icecold52: 乡长:我这是故意四坏桃园王 抓神全DP战术好吗?! 07/11 19:48
729F:推 yyc1217: 大威没有内部情资 07/11 19:48
730F:推 bojatom: 下场的时候 60号还往高国辉的方向看? 07/11 19:48
731F:→ NTJL: 可以啊 尽量说~ 07/11 19:48
732F:→ clubsir: 内野根本很难跑 容易摔倒 07/11 19:49
733F:推 a12367227: 希望国辉没事 07/11 19:49
734F:→ goodevening: 怎麽会沦落到败处勒.... 07/11 19:49
735F:推 opwin: 懒得四球敬远 丢一下桃园王比较快顺便报仇 07/11 19:49
736F:→ ft090646: 红中赛後会出来说内部情资吗? 07/11 19:49
737F:推 toolin: 胜雄要变天天系列了吗 07/11 19:50
738F:推 corner0111: lamigo加油声真大 07/11 19:50
739F:嘘 qwehaha: 神全..这种关键时刻...唉 07/11 19:50
740F:→ goodevening: 红中内部情资说 不是证实故意是真的?? 07/11 19:50
741F:推 bignoob: HRRRR 07/11 19:51
742F:推 F12: 诈 07/11 19:51
743F:推 reborn0301: 黄真惨 被操坏了 07/11 19:51
744F:→ a12367227: 01拳今天打的不错了 07/11 19:51
745F:推 adam7148: 炸裂 07/11 19:51
746F:→ shintz: .....gg 07/11 19:51
747F:推 goodevening: 有机会挑战史上最强34棒吗 07/11 19:52
748F:→ NTJL: LM塔终於又开工了(泪 07/11 19:52
749F:推 blueasoo: 外野人好多....... 07/11 19:52
750F:→ cpcpao: 猿文跳舞跳一圈 07/11 19:52
751F:→ bignoob: EEEEE? 07/11 19:53
752F:推 nyyjeter8: 冠威... 07/11 19:53
753F:推 adam7148: 又失误了 07/11 19:53
754F:→ cissant: 哈哈哈哈哈哈 07/11 19:53
755F:→ doris1016: 烂到没话说XDDD 07/11 19:53
756F:→ goodevening: 冠威的日常 07/11 19:53
757F:→ cissant: 搞笑组的XD 07/11 19:53
758F:推 oddhand: 往三垒打 07/11 19:53
759F:→ bignoob: 冠威的日常 07/11 19:53
760F:推 wb7346: 冠威魔咒.... 07/11 19:53
761F:推 murray: 杯具 07/11 19:53
762F:→ globekiller: 冠威 囧 07/11 19:53
763F:推 yankees733: 冠威的日常XD 07/11 19:53
764F:推 mystage: 这颗我都能接 07/11 19:53
765F:→ NEOdesu: 真的只能换人了 像版友说的三一垒互换应该是正解 07/11 19:53
766F:嘘 Ison: 烂透了 07/11 19:53
767F:嘘 Lackland: 我去守也跟他差不多 07/11 19:53
768F:推 michael9002: 正常能量释放 07/11 19:53
769F:→ rock0525: 不会接就不要抢..... 07/11 19:54
770F:推 yyc1217: 失误後又要失分了 07/11 19:54
771F:→ goodevening: 今年最悲剧的一三垒守备吧.... 07/11 19:54
772F:推 a12367227: 要让凤雏守三垒......有点沉重 07/11 19:54
773F:→ cpcpao: 加油声有点猛 07/11 19:54
774F:→ adam7148: 教练对他真有爱 来一军练守备 07/11 19:54
775F:推 anoreader: 这时候偷点 应该又是呼叫美国人时间了... 07/11 19:54
776F:→ goodevening: 持续缴学费,就怕根本没收到效果 07/11 19:54
777F:推 NTJL: 三一互换只是换人被酸吧 07/11 19:54
778F:推 Leaflock: 希望明星赛增加野手守备比赛 让球迷票选各队选手参加 07/11 19:54
779F:推 reborn0301: 午迷还可以忍受多久呢? 07/11 19:54
780F:嘘 vegetabler: 在棒球版都可以推 “XXX不倒台湾不会好”,XXX金价某 07/11 19:54
781F:→ ghostbird: 别忘了胜母锋连线 07/11 19:55
782F:→ vegetabler: 甘单 07/11 19:55
783F:→ goodevening: 哀 正典说的好,守备不是应该在二军练的吗? 07/11 19:55
784F:→ muching: 老化的泰山都乐胜怎麽练都练不起来的冠威 07/11 19:56
785F:→ hu610346: KKKKKKKKKKKKKKKK 07/11 19:58
786F:→ mats0816: 伟仔的打击率越降越低 07/11 19:58
787F:推 s65830056: 往3垒打 上垒率不知道有多少... 07/11 19:58
788F:→ hu610346: 等等是BOYO上班吗? 没剧场可以看了 开始工作 07/11 19:59
789F:推 yyc1217: 黄胜雄状况好像不错 坏球的情形有变少 07/11 19:59
790F:推 NTJL: 黄胜雄还能SP吗? 07/11 20:00
791F:推 bignoob: 还有赛後演唱耶 CPBLTV再看 一下嘛 07/11 20:00
792F:推 m85037: apple 07/11 20:00
793F:推 applejone: 女孩们 赞 07/11 20:01
794F:推 bignoob: 准 07/11 20:02
795F:推 adam7148: KKKKK 07/11 20:02
796F:推 goodevening: 球速有点慢 但还是控的好 07/11 20:02
797F:推 knml: 帅气三振 07/11 20:02
798F:推 sheng514155: 舒服多了 07/11 20:02
799F:→ DevilJJ: 为啥阳炮可以在一军= = 守不行 打也不行 07/11 20:03
800F:→ muching: 没手套又没棒子 07/11 20:03
801F:推 gogogo123: 143还好吧 07/11 20:03
802F:→ ken5903247: 裤子好松 07/11 20:03
803F:推 tw88: 节奏好快xd 07/11 20:03
804F:推 yyc1217: 因为爱 07/11 20:03
805F:推 john54: 控球赞 07/11 20:03
806F:→ goodevening: 他受伤前都145的 07/11 20:03
807F:→ gogogo123: 状况好最快146~148 状况差 140上下 07/11 20:03
808F:推 philxiao: 看Boyo投球真的有爽度,少数本土投手有这种感觉的 07/11 20:03
809F:→ gogogo123: 上一场就146再飙呀 应该这场状况问题吧 07/11 20:04
810F:→ goodevening: 真的是有救援天分 投一局很杀 07/11 20:04
811F:推 poweregg: 144 07/11 20:04
812F:推 bignoob: M1 07/11 20:05
813F:→ cpcpao: 外角低好准 07/11 20:05
814F:→ gogogo123: 通常擦棒球球速显示都会快一些 07/11 20:05
815F:→ goodevening: 就直球狂塞好球带,看他投球真得爽 07/11 20:05
816F:推 yyc1217: 代打王 07/11 20:06
817F:→ gogogo123: 乡长以前不是还能封锁MLB来台明星队 结果现在惨兮兮 07/11 20:06
818F:→ icecold52: BOYO 15 球内解决 好像有点强 XD 07/11 20:07
819F:推 bignoob: GG EDA 2:4 LM 07/11 20:07
820F:→ aa97531aa: 喔喔喔喔 午午 07/11 20:08
821F:推 goodevening: 纯看後援boyo成绩非常漂亮 一局杀没啥问题 07/11 20:08
822F:推 NTJL: BOYO节奏明快 07/11 20:08
823F:推 sheng514155: 赛後还有活动? 07/11 20:11
824F:→ NTJL: 好像还有 07/11 20:12
825F:推 hu610346: 声音? 07/11 20:12
826F:推 yyc1217: 要跟球员喝酒烤肉 还有球员要唱歌 07/11 20:12
827F:→ icecold52: 义大赛後活动 CPBL TV会转播吗?? 07/11 20:14
828F:→ NTJL: 活动不在场内 看来没得转 07/11 20:15
829F:推 bignoob: 刚开TV 已经在过带准备重播了 07/11 20:15
830F:→ WeAntiTVBS: 你当是桃园的LMTV喔 07/11 20:16
831F:→ NTJL: 场内的话 CPBLTV会转~场外就没辙了 07/11 20:16
832F:→ bignoob: LM动紫趴 CPBLTV有拨到後面 07/11 20:16
833F:推 WongTakashi: 赛後 场内可以 场外不行 07/11 20:17
834F:推 keans0785: 日本会内伤,超机车的XD 07/11 20:23
835F:嘘 kazumi66: 原来去年赢今年也会稳赢?笑死人 07/11 20:29
836F:嘘 etyk20: 金牌跟人家分 是分了以後钱会变少 还是金牌从圆形变半圆 07/11 20:38
837F:推 john54: 楼上3位 走错棚了== 07/11 20:40
838F:→ WeAntiTVBS: 看来这篇要先解除 07/11 20:40
839F:推 howlife: 嘻嘻 07/11 20:47







like.gif 您可能会有兴趣的文章
icon.png[问题/行为] 猫晚上进房间会不会有憋尿问题
icon.pngRe: [闲聊] 选了错误的女孩成为魔法少女 XDDDDDDDDDD
icon.png[正妹] 瑞典 一张
icon.png[心得] EMS高领长版毛衣.墨小楼MC1002
icon.png[分享] 丹龙隔热纸GE55+33+22
icon.png[问题] 清洗洗衣机
icon.png[寻物] 窗台下的空间
icon.png[闲聊] 双极の女神1 木魔爵
icon.png[售车] 新竹 1997 march 1297cc 白色 四门
icon.png[讨论] 能从照片感受到摄影者心情吗
icon.png[狂贺] 贺贺贺贺 贺!岛村卯月!总选举NO.1
icon.png[难过] 羡慕白皮肤的女生
icon.png阅读文章
icon.png[黑特]
icon.png[问题] SBK S1安装於安全帽位置
icon.png[分享] 旧woo100绝版开箱!!
icon.pngRe: [无言] 关於小包卫生纸
icon.png[开箱] E5-2683V3 RX480Strix 快睿C1 简单测试
icon.png[心得] 苍の海贼龙 地狱 执行者16PT
icon.png[售车] 1999年Virage iO 1.8EXi
icon.png[心得] 挑战33 LV10 狮子座pt solo
icon.png[闲聊] 手把手教你不被桶之新手主购教学
icon.png[分享] Civic Type R 量产版官方照无预警流出
icon.png[售车] Golf 4 2.0 银色 自排
icon.png[出售] Graco提篮汽座(有底座)2000元诚可议
icon.png[问题] 请问补牙材质掉了还能再补吗?(台中半年内
icon.png[问题] 44th 单曲 生写竟然都给重复的啊啊!
icon.png[心得] 华南红卡/icash 核卡
icon.png[问题] 拔牙矫正这样正常吗
icon.png[赠送] 老莫高业 初业 102年版
icon.png[情报] 三大行动支付 本季掀战火
icon.png[宝宝] 博客来Amos水蜡笔5/1特价五折
icon.pngRe: [心得] 新鲜人一些面试分享
icon.png[心得] 苍の海贼龙 地狱 麒麟25PT
icon.pngRe: [闲聊] (君の名は。雷慎入) 君名二创漫画翻译
icon.pngRe: [闲聊] OGN中场影片:失踪人口局 (英文字幕)
icon.png[问题] 台湾大哥大4G讯号差
icon.png[出售] [全国]全新千寻侘草LED灯, 水草

请输入看板名称,例如:BabyMother站内搜寻

TOP